www.pogodaiklimat.ru

Погода и климат >> Архив погоды >> Узбекистан >> Коканд


ПОГОДА в Коканде

  • Прогноз погоды в Коканде
  • Монитор погоды в Коканде

АРХИВ ПОГОДЫ в Коканде

Время (UTC), дата Ветер
(напр.,м/с)
 
Видим.   Явления Облачность Т
(С)
Тd
(С)
f
(%)
Тe
(С)
Тes
(С)
Комфортность P
(гПа)
Po
(гПа)
Тmin
(С)
Tmax
(С)
R
(мм)
R24
(мм)
S
(см)
12 10.08 З 2 10 км ясно +33.0 +13.1 30 +34 +37 очень
жарко
1002.0 958.6
15 10.08 СЗ 1 10 км ясно +27.0 +18.4 59 +32 +32 очень
душно
1002.6 958.3 +34.0
18 10.08 З 2 10 км ясно +25.0 +12.3 45 +27 +27 жарко 1002.7 958.1 +34.0
21 10.08 ЮЗ 2 10 км ясно +23.5 +14.4 57 +26 +26 жарко 1003.1 958.2
00 11.08 З 1 10 км ясно +19.3 +14.1 72 +22 +22 комфорт 1003.4 957.9
03 11.08 С 1 10 км ясно +22.2 +15.0 64 +26 +32 душно 1002.6 957.6
06 11.08 ЮЗ 2 10 км ясно +31.4 +16.9 42 +35 +51 опасность
солнечного
удара
1000.7 957.2 +19.3
09 11.08 ЮЗ 1 10 км ясно +35.0 +15.1 30 +36 +54 опасность
солнечного
удара
998.9 955.9
12 11.08 ЮЗ 1 10 км ясно +35.4 +15.4 30 +37 +41 очень
душно
997.3 954.5
15 11.08 ЮЗ 2 10 км ясно +30.0 +14.6 39 +32 +32 жарко 998.5 954.9 +36.0
18 11.08 штиль 0 10 км ясно +23.1 +13.9 56 +27 +27 душно 1001.9 957.0 +36.0
21 11.08 З 2 10 км ясно +22.9 +14.9 61 +27 +27 душно 1002.5 957.6
00 12.08 З 2 10 км ясно +21.9 +17.4 76 +26 +26 душно 1004.2 959.1
03 12.08 ЮЗ 2 10 км ясно +25.0 +16.8 60 +29 +34 душно 1004.8 960.1
09 12.08 ЮЗ 3 10 км ясно +36.2 +15.1 29 +38 +50 очень
душно
1002.8 959.7
12 12.08 З 3 10 км 3/0
[Ci ing]
+35.8 +9.5 20 +34 +37 очень
жарко
1001.8 958.7
15 12.08 ЮЗ 4 10 км 9/0
[Ac trans Ci ing]
+32.2 +4.0 17 +30 +30 жарко 1002.6 958.9 +37.4
18 12.08 ЮЗ 1 10 км 9/0
[Ac trans Ci ing]
+28.2 +7.4 27 +28 +28 жарко 1004.0 959.6 +37.4
21 12.08 ЮЗ 2 10 км 9/0
[Ci ing]
+24.8 +9.9 39 +26 +26 жарко 1004.6 960.0
00 13.08 З 1 10 км 4/0
[Ci ing]
+21.7 +12.2 55 +24 +24 комфорт 1006.0 960.7
03 13.08 ЮЗ 3 10 км 3/0
[Ci ing]
+25.6 +10.2 38 +26 +30 жарко 1006.8 962.0
06 13.08 ЮЗ 6 10 км 3/0
[Ci ing]
+29.2 +9.7 30 +29 +35 жарко 1005.8 961.6 +21.7
09 13.08 ЮЗ 8 10 км ясно +32.0 +8.9 24 +31 +34 жарко 1004.2 960.4
12 13.08 З 9 10 км ясно +31.6 +9.3 25 +31 +31 жарко 1002.4 958.7
15 13.08 ЮЗ 10 10 км 6/0
[Ac und Ci ing]
+28.6 +7.6 27 +28 +28 жарко 1003.4 959.2 +33.0
18 13.08 З 10 10 км 6/0
[Ac und Ci ing]
+27.2 +8.0 30 +27 +27 жарко 1005.6 961.0 +33.0
21 13.08 З 8 10 км 8/0
[Ac und Ci ing]
+25.3 +7.8 33 +25 +25 комфорт 1006.9 962.1
00 14.08 З 8 10 км 4/0
[Ci ing]
+23.5 +8.8 39 +24 +24 комфорт 1007.1 962.0
03 14.08 ЮЗ 8 10 км 3/0
[Ci ing]
+24.6 +7.6 34 +25 +26 комфорт 1009.0 964.0
06 14.08 ЮЗ 5 10 км ясно +27.8 +7.3 27 +27 +36 жарко 1008.3 963.8 +22.0
09 14.08 З 6 10 км ясно +30.8 +6.7 22 +29 +35 жарко 1006.6 962.6
12 14.08 З 10 10 км ясно +28.8 +6.7 25 +28 +28 жарко 1005.7 961.4
15 14.08 ЮЗ 8 10 км ясно +25.6 +6.7 30 +25 +25 комфорт 1007.9 963.1 +32.0
18 14.08 ЮЗ 5 10 км 9/0
[Ac und Ci ing]
+25.0 +6.5 31 +25 +25 комфорт 1008.7 963.7 +32.0
21 14.08 ЮЗ 4 10 км 9/0
[Ac und Ci ing]
+24.0 +10.7 43 +25 +25 комфорт 1008.7 963.7
00 15.08 ЮЗ 3 10 км 9/0
[Ac und Ci ing]
+22.1 +8.0 40 +23 +23 комфорт 1010.7 965.1
03 15.08 З 2 10 км 9/0
[]
+22.5 +11.2 49 +25 +27 комфорт 1012.8 967.3
06 15.08 штиль 0 10 км ясно +28.2 +10.4 33 +29 +50 жарко 1012.0 967.4 +22.0
09 15.08 З 4 10 км 4/0
[Ci ing]
+30.2 +17.1 45 +34 +43 очень
душно
1009.9 965.9
12 15.08 ЮЗ 4 10 км ясно +29.8 +7.3 24 +29 +31 жарко 1009.0 964.8
15 15.08 ЮЗ 5 10 км ясно +25.4 +7.8 33 +26 +26 жарко 1009.3 964.5 +31.0
18 15.08 З 3 10 км ясно +22.9 +7.7 38 +24 +24 комфорт 1010.5 965.1 +31.0
21 15.08 ЮЗ 2 10 км 9/0
[Ci ing]
+21.1 +8.6 45 +22 +22 комфорт 1010.1 964.8
00 16.08 ЮЗ 1 10 км 9/0
[Ci ing]
+19.7 +10.5 55 +22 +22 комфорт 1010.4 964.6
03 16.08 ЮЗ 2 10 км 9/0
[Ci ing]
+21.9 +9.7 46 +23 +27 комфорт 1010.3 964.8
06 16.08 ЮЗ 2 10 км 9/0
[Ac trans Ci ing]
+28.2 +9.5 31 +28 +39 жарко 1009.1 964.7 +19.7
09 16.08 З 1 10 км 9/0
[Ci ing]
+29.4 +9.4 29 +29 +43 жарко 1007.8 963.6
12 16.08 ЮЗ 4 10 км 9/0
[Ac und Ci ing]
+26.6 +8.6 32 +27 +28 жарко 1007.5 962.9
15 16.08 ЮЗ 6 10 км 9/3 1500 м
[Cb cap Ac und Ci ing]
+26.2 +8.0 32 +26 +26 жарко 1008.3 963.5 +31.0
21 16.08 З 2 10 км 9/0
[Ci ing]
+22.5 +8.1 40 +24 +24 комфорт 1009.9 964.6
03 17.08 ЮЗ 1 10 км 3/0
[Ci ing]
+21.3 +9.9 48 +23 +28 комфорт 1011.5 965.9

 

Местоположение метеостанции Коканд (Ферганская область, Узбекистан): широта 40.55 долгота 70.95 высота над уровнем моря 499 м.

В архиве по умолчанию представлена погода в Коканде за последнюю неделю. Архивные данные за месяц целиком и за предыдущие месяцы, начиная с января 2011 года, Вы можете получить, выбрав интересующий диапазон дат из раскрывающегося списка и нажав кнопку "Ввод!".


*Определитесь, кто Вы:
робот инопланетянин человек

Внимание! Время в таблицах - всемирное. Для получения местного времени необходимо прибавить поправку, которая равна 5 ч.

Смотрите также архив погоды в соседних городах и на ближайших метеорологических станциях:

Погода в Папе (Намаганская область, Узбекистан) (39 км)
Погода в Юбилейной (Андижанская область, Узбекистан) (58 км)
Погода в Сарыканде (Андижанская область, Узбекистан) (66 км)
Погода в Фергане (Ферганская область, Узбекистан) (71 км)
Погода в Намангане (Намаганская область, Узбекистан) (71 км)
Погода в Камчике (Ташкентская область, Узбекистан) (72 км)
Погода в Ангрене (Ташкентская область, Узбекистан) (82 км)
Погода в Бозе (Андижанская область, Узбекистан) (83 км)
Погода в Куве (Ферганская область, Узбекистан) (94 км)
Погода в Дуканте (Ташкентская область, Узбекистан) (100 км)

Пояснения к столбцам:

Ветер - указаны скорость ветра в м/с - средняя за 10 мин, порывы в срок и между сроками (в фигурных скобках) и направление, откуда дует ветер: С - северный, СВ - северо-восточный, В - восточный, ЮВ - юго-восточный, Ю - южный, ЮЗ - юго-западный, З - западный, СЗ - северо-западный.
Видимость - горизонтальная дальность видимости в метрах или километрах. При видимости от 1 до 10 км при отсутствии осадков обычно наблюдается дымка, при ухудшении видимости до 1 км и менее - туман. В сухую погоду видимость может ухудшаться дымом, пылью или мглою.
Явления - указаны атмосферные явления, наблюдавшиеся в срок или в последний час перед сроком; фигурными скобками обозначены явления, наблюдавшиеся между сроками (за 1-3 часа до срока); квадратными скобками обозначены град или гололедные отложения с указанием их диаметра в мм.
Облачность - указаны через наклонную черту общая и нижняя облачность в баллах и высота нижней границы облаков в метрах; квадратными скобками обозначены формы облаков: Ci - перистые, Cs - перисто-слоистые, Cc - перисто-кучевые, Ac - высококучевые, As - высокослоистые, Sc - слоисто-кучевые, Ns - слоисто-дождевые, Cu - кучевые, Cb - кучево-дождевые. Подробнее классификацию облаков см. в Атласе облаков (PDF).
T - Температура воздуха - температура, измеренная на высоте 2 м над землей.
Td - Температура точки росы - температура, при понижении до которой содержащийся в воздухе водяной пар достигнет насыщения.
f - Относительная влажность воздуха - влажноcть воздуха, измеренная на высоте 2 м над землей.
Te - Эффективная температура - температура, которую ощущает одетый по сезону человек в тени. Характеристика душности погоды. При расчете учитывается влияние влажности воздуха и скорости ветра на теплоощущения человека.
Tes - Эффективная температура на солнце - температура, которую ощущает человек, с поправкой на солнечный нагрев. Характеристика знойности погоды. Зависит от высоты солнца над горизонтом, облачности и скорости ветра. Ночью, в пасмурную погоду, а также при ветре 12 м/с и более поправка равна нулю.
P - Атмосферное давление - приведенное к уровню моря атмосферное давление.
Po - Атмосферное давление - измеренное на уровне метеостанции атмосферное давление.
Tmin - Минимальная температура - минимум температуры воздуха на высоте 2 м над землей.
Tmax - Максимальная температура - максимум температуры воздуха на высоте 2 м над землей.
R - Количество осадков - Количество выпавших осадков за период времени, мм. При наведении курсора мыши на число - период времени, за который выпало указанное количество осадков.
R24 - Количество осадков - Количество выпавших осадков за 24 часа, мм.
S - Снежный покров - Высота снежного покрова, см. При наведении курсора мыши на число - состояние снежного покрова и степень покрытия местности в баллах.